TimeCDT,TemperatureF,Dew PointF,Humidity,Sea Level PressureIn,VisibilityMPH,Wind Direction,Wind SpeedMPH,Gust SpeedMPH,PrecipitationIn,Events,Conditions,WindDirDegrees,DateUTC
12:15 AM,23.5,16.7,75,30.00,10.0,NNW,12.7,19.6,N/A,,Scattered Clouds,340,2013-03-11 05:15:00
12:35 AM,23.0,16.5,76,29.99,10.0,NNW,11.5,18.4,N/A,,Clear,340,2013-03-11 05:35:00
12:55 AM,23.0,15.8,74,29.99,10.0,North,12.7,20.7,N/A,,Clear,350,2013-03-11 05:55:00
1:15 AM,22.8,16.0,75,29.99,10.0,NW,9.2,-,N/A,,Clear,320,2013-03-11 06:15:00
1:35 AM,22.1,15.8,77,29.99,10.0,NW,10.4,-,N/A,,Scattered Clouds,310,2013-03-11 06:35:00
1:55 AM,21.7,15.6,77,29.99,10.0,NW,9.2,-,N/A,,Mostly Cloudy,320,2013-03-11 06:55:00
2:15 AM,21.6,15.4,77,29.98,10.0,NNW,9.2,-,N/A,,Overcast,330,2013-03-11 07:15:00
2:35 AM,21.0,14.9,77,29.97,10.0,NNW,8.1,-,N/A,,Scattered Clouds,340,2013-03-11 07:35:00
2:55 AM,20.1,14.5,79,29.98,10.0,NW,8.1,-,N/A,,Clear,320,2013-03-11 07:55:00
3:15 AM,19.2,14.0,80,29.99,10.0,NW,11.5,16.1,N/A,,Scattered Clouds,310,2013-03-11 08:15:00
3:35 AM,19.4,14.0,80,29.98,10.0,NW,10.4,16.1,N/A,,Overcast,310,2013-03-11 08:35:00
3:55 AM,19.4,14.0,80,29.97,10.0,NW,9.2,-,N/A,Snow,Light Snow,310,2013-03-11 08:55:00
4:15 AM,19.8,13.8,78,29.96,10.0,NNW,12.7,-,N/A,Snow,Light Snow,330,2013-03-11 09:15:00
4:35 AM,18.1,12.4,78,29.95,10.0,NW,5.8,-,N/A,,Scattered Clouds,310,2013-03-11 09:35:00
4:55 AM,15.8,10.9,81,29.95,10.0,NW,6.9,-,N/A,,Clear,320,2013-03-11 09:55:00
5:15 AM,14.5,9.9,82,29.95,10.0,WNW,6.9,-,N/A,,Clear,300,2013-03-11 10:15:00
5:35 AM,13.8,9.3,82,29.95,10.0,WNW,5.8,-,N/A,,Clear,300,2013-03-11 10:35:00
5:55 AM,12.9,8.6,83,29.96,10.0,WNW,6.9,-,N/A,,Clear,300,2013-03-11 10:55:00
6:15 AM,12.0,7.7,83,29.95,10.0,NW,3.5,-,N/A,,Clear,310,2013-03-11 11:15:00
6:35 AM,10.9,6.8,83,29.95,10.0,West,5.8,-,N/A,,Clear,280,2013-03-11 11:35:00
6:55 AM,11.8,7.3,82,29.96,10.0,WNW,8.1,-,N/A,,Clear,300,2013-03-11 11:55:00
7:15 AM,12.7,7.7,80,29.97,10.0,WNW,6.9,-,N/A,,Clear,290,2013-03-11 12:15:00
7:35 AM,13.1,7.7,79,29.97,10.0,West,5.8,-,N/A,,Clear,280,2013-03-11 12:35:00
7:55 AM,12.6,7.5,80,29.97,10.0,West,4.6,-,N/A,,Clear,260,2013-03-11 12:55:00
8:15 AM,14.0,8.2,78,29.97,10.0,West,6.9,-,N/A,,Clear,260,2013-03-11 13:15:00
8:35 AM,14.2,8.2,77,29.98,10.0,West,6.9,-,N/A,,Clear,270,2013-03-11 13:35:00
8:55 AM,14.0,7.7,76,29.99,10.0,West,6.9,-,N/A,,Clear,270,2013-03-11 13:55:00
9:15 AM,14.7,8.4,76,29.98,10.0,WNW,5.8,-,N/A,,Clear,290,2013-03-11 14:15:00
9:35 AM,16.5,9.5,74,29.99,10.0,WNW,8.1,-,N/A,,Clear,300,2013-03-11 14:35:00
9:55 AM,18.0,9.9,71,29.99,10.0,NW,6.9,-,N/A,,Clear,310,2013-03-11 14:55:00
10:15 AM,20.1,11.5,69,29.99,10.0,NW,8.1,-,N/A,,Clear,320,2013-03-11 15:15:00
10:35 AM,21.2,11.5,66,29.99,10.0,NW,9.2,-,N/A,,Clear,310,2013-03-11 15:35:00
10:55 AM,21.7,11.7,65,29.99,10.0,NW,8.1,-,N/A,,Clear,320,2013-03-11 15:55:00
11:15 AM,23.0,11.8,62,29.98,10.0,NW,9.2,-,N/A,,Clear,310,2013-03-11 16:15:00
11:35 AM,23.7,11.8,61,29.98,10.0,NW,11.5,-,N/A,,Clear,310,2013-03-11 16:35:00
11:55 AM,24.3,12.2,60,29.98,10.0,NW,8.1,-,N/A,,Clear,320,2013-03-11 16:55:00
12:15 PM,25.2,12.7,59,29.98,10.0,WNW,11.5,-,N/A,,Clear,300,2013-03-11 17:15:00
12:35 PM,26.2,12.4,56,29.97,10.0,NW,9.2,-,N/A,,Clear,320,2013-03-11 17:35:00
12:55 PM,27.1,14.5,59,29.98,10.0,West,9.2,-,N/A,,Clear,280,2013-03-11 17:55:00
1:15 PM,28.4,13.6,54,29.97,10.0,WNW,6.9,-,N/A,,Clear,290,2013-03-11 18:15:00
1:35 PM,29.7,14.4,53,29.96,10.0,West,5.8,-,N/A,,Clear,280,2013-03-11 18:35:00
1:55 PM,30.2,13.6,50,29.94,10.0,West,4.6,-,N/A,,Clear,270,2013-03-11 18:55:00
2:15 PM,31.6,14.4,49,29.93,10.0,West,4.6,-,N/A,,Clear,280,2013-03-11 19:15:00
2:35 PM,32.2,13.8,47,29.93,10.0,WSW,3.5,-,N/A,,Clear,250,2013-03-11 19:35:00
2:55 PM,32.5,15.4,49,29.92,10.0,SW,6.9,-,N/A,,Clear,230,2013-03-11 19:55:00
3:15 PM,33.4,16.2,49,29.92,10.0,West,6.9,-,N/A,,Clear,260,2013-03-11 20:15:00
3:55 PM,34.0,20.7,58,29.91,10.0,SSW,6.9,-,N/A,,Clear,210,2013-03-11 20:55:00
4:15 PM,35.2,20.8,56,29.90,10.0,SW,6.9,-,N/A,,Clear,230,2013-03-11 21:15:00
4:35 PM,35.8,20.8,55,29.90,10.0,SW,10.4,-,N/A,,Clear,220,2013-03-11 21:35:00
4:55 PM,36.7,21.7,55,29.90,10.0,SSW,10.4,-,N/A,,Clear,210,2013-03-11 21:55:00
5:15 PM,36.7,23.2,58,29.90,10.0,SW,8.1,-,N/A,,Clear,220,2013-03-11 22:15:00
5:35 PM,36.5,24.3,61,29.90,10.0,SSW,9.2,-,N/A,,Clear,210,2013-03-11 22:35:00
5:55 PM,36.3,24.6,63,29.89,10.0,SSW,8.1,-,N/A,,Clear,210,2013-03-11 22:55:00
6:15 PM,36.5,25.3,64,29.89,10.0,SSW,5.8,-,N/A,,Clear,210,2013-03-11 23:15:00
6:35 PM,36.1,25.7,66,29.90,10.0,SW,5.8,-,N/A,,Clear,220,2013-03-11 23:35:00
6:55 PM,36.9,26.6,66,29.90,10.0,SW,8.1,-,N/A,,Clear,230,2013-03-11 23:55:00
7:15 PM,35.6,27.0,71,29.91,10.0,SW,5.8,-,N/A,,Clear,230,2013-03-12 00:15:00
7:35 PM,34.9,27.3,74,29.91,10.0,WSW,3.5,-,N/A,,Clear,240,2013-03-12 00:35:00
7:55 PM,33.6,27.1,77,29.92,10.0,SW,6.9,-,N/A,,Clear,230,2013-03-12 00:55:00
8:15 PM,34.2,27.3,76,29.93,10.0,Calm,Calm,-,N/A,,Clear,0,2013-03-12 01:15:00
8:35 PM,34.0,27.1,76,29.93,10.0,Calm,Calm,-,N/A,,Clear,0,2013-03-12 01:35:00
8:55 PM,33.1,26.8,78,29.94,10.0,Calm,Calm,-,N/A,,Clear,0,2013-03-12 01:55:00
9:15 PM,32.7,27.0,79,29.96,10.0,Calm,Calm,-,N/A,,Clear,0,2013-03-12 02:15:00
9:35 PM,32.0,26.8,81,29.98,10.0,West,3.5,-,N/A,,Clear,280,2013-03-12 02:35:00
9:55 PM,32.4,27.3,82,29.97,10.0,Calm,Calm,-,N/A,,Clear,0,2013-03-12 02:55:00
10:15 PM,32.9,27.3,80,29.99,10.0,West,3.5,-,N/A,,Clear,260,2013-03-12 03:15:00
10:35 PM,33.8,27.5,78,30.00,10.0,Calm,Calm,-,N/A,,Clear,0,2013-03-12 03:35:00
10:55 PM,32.2,26.6,80,30.00,10.0,Calm,Calm,-,N/A,,Clear,0,2013-03-12 03:55:00
11:15 PM,32.0,27.5,83,30.02,10.0,Calm,Calm,-,N/A,,Clear,0,2013-03-12 04:15:00
11:35 PM,34.2,27.3,76,30.03,10.0,Calm,Calm,-,N/A,,Clear,0,2013-03-12 04:35:00
11:55 PM,34.2,27.3,76,30.03,10.0,SW,3.5,-,N/A,,Clear,230,2013-03-12 04:55:00